This demonstration page uses our WeatherBlox Daily Observations layout. Learn more.

Left ArrowRight Arrow

Hourly Observations for February 26, 2015

Temp ( °F °C ) Dew Point ( °F °C ) Humidity (%) Winds ( mph kmh ) Pressure ( in mb ) Visibility ( mi km ) Precip ( " mm )
12:53 am 00:53 Clear 49 9.4 25 -3.9 39 39 N 18 30 29.83 1010 10 16 0.00 0.00
1:53 am 01:53 Clear 48 8.9 28 -2.2 46 46 NNE 16 26 29.87 1011 10 16 0.00 0.00
2:53 am 02:53 Clear 45 7.2 30 -1.1 56 56 N 9 15 29.89 1012 10 16 0.00 0.00
3:53 am 03:53 Clear 44 6.7 32 0 63 63 NNE 10 17 29.89 1012 10 16 0.00 0.00
4:53 am 04:53 Clear 42 5.6 32 0 68 68 NNE 12 19 29.92 1013 10 16 0.00 0.00
5:53 am 05:53 Clear 42 5.6 32 0 68 68 NNE 10 17 29.97 1015 10 16 0.00 0.00
6:53 am 06:53 Clear 42 5.6 32 0 68 68 NE 13 20 30.02 1017 10 16 0.00 0.00
7:15 am 07:15 Mostly Cloudy 42 5.6 32 0 68 68 NE 16 26 30.12 1020 10 16 0.00 0.00
7:53 am 07:53 Cloudy 40 4.4 31 -0.6 70 70 NE 20 31 30.08 1019 10 16 0.00 0.00
8:53 am 08:53 Cloudy 39 3.9 30 -1.1 70 70 NE 13 20 30.13 1020 10 16 0.00 0.00
9:53 am 09:53 Cloudy 38 3.3 29 -1.7 70 70 NE 18 30 30.17 1022 10 16 0.00 0.00
10:53 am 10:53 Cloudy 37 2.8 28 -2.2 70 70 NE 18 30 30.19 1022 10 16 0.00 0.00
11:53 am 11:53 Cloudy 38 3.3 26 -3.3 62 62 NE 18 30 30.19 1023 10 16 0.00 0.00
12:53 pm 12:53 Cloudy 37 2.8 25 -3.9 62 62 ENE 14 22 30.21 1023 10 16 0.00 0.00
1:53 pm 13:53 Cloudy 37 2.8 24 -4.4 59 59 NE 15 24 30.19 1022 10 16 0.00 0.00
2:53 pm 14:53 Cloudy 37 2.8 22 -5.6 54 54 NE 14 22 30.20 1023 10 16 0.00 0.00
3:53 pm 15:53 Cloudy 36 2.2 21 -6.1 55 55 ENE 16 26 30.19 1022 10 16 0.00 0.00
4:16 pm 16:16 Cloudy 36 2.2 20 -6.7 52 52 NE 16 26 30.27 1025 10 16 0.00 0.00
4:53 pm 16:53 Cloudy 35 1.7 20 -6.7 54 54 E 16 26 30.18 1022 10 16 0.00 0.00
5:53 pm 17:53 Cloudy 33 0.6 19 -7.2 56 56 ENE 15 24 30.21 1023 10 16 0.00 0.00
6:20 pm 18:20 Cloudy 34 1 19 -7 56 56 E 15 24 30.30 1026 10 16 0.00 0.00
6:53 pm 18:53 Cloudy 32 0 19 -7.2 59 59 ENE 15 24 30.22 1024 10 16 0.00 0.00
7:53 pm 19:53 Cloudy 32 0 18 -7.8 56 56 ENE 16 26 30.24 1024 10 16 0.00 0.00
8:53 pm 20:53 Cloudy 31 -0.6 16 -8.9 54 54 E 12 19 30.26 1025 10 16 0.00 0.00
9:53 pm 21:53 Cloudy 30 -1.1 17 -8.3 58 58 E 13 20 30.27 1025 10 16 0.00 0.00
10:53 pm 22:53 Cloudy 30 -1.1 16 -8.9 56 56 E 14 22 30.26 1025 10 16 0.00 0.00
11:53 pm 23:53 Cloudy 30 -1.1 16 -8.9 56 56 E 12 19 30.24 1024 10 16 0.00 0.00

Powered by AerisWeather